Weather History for KTYS - August, 2013

Change the Weather History Date:

Sunday, August 25, 2013

  Actual Average Record
Temperature  
Mean Temperature 74 °F 77 °F  
Max Temperature 84 °F 87 °F 99 °F (1943)
Min Temperature 63 °F 67 °F 53 °F (1891)
Degree Days  
Heating Degree Days 0 0  
Month to date heating degree days 0 0  
Since 1 June heating degree days 0 4  
Since 1 July heating degree days 0 0  
Cooling Degree Days 9 12  
Month to date cooling degree days 282 322  
Year to date cooling degree days 1108 1206  
Since 1 June cooling degree days 952 1044  
Growing Degree Days 24 (Base 50)    
Moisture  
Dew Point 62 °F    
Average Humidity 68    
Maximum Humidity 93    
Minimum Humidity 43    
Precipitation  
Precipitation 0.00 in 0.09 in 1.44 in (1941)
Month to date precipitation 2.96 2.75  
Year to date precipitation 51.13 33.08  
Snow  
Snow 0.00 in 0.00 in - ()
Month to date snowfall 0.0 0.0  
Since 1 June snowfall 0.0 0.0  
Since 1 July snowfall 0.0 0.0  
Snow Depth 0.00 in    
Sea Level Pressure  
Sea Level Pressure 30.28 in    
Wind  
Wind Speed 3 mph (NE)    
Max Wind Speed 14 mph    
Max Gust Speed 20 mph    
Visibility 10 miles    
Events      
T = Trace of Precipitation, MM = Missing Value Source: NWS Daily Summary

Daily Weather History Graph

Daily Weather History Graph

Search for Another Location

Airport or City:

Trip Planner

Search our weather history database for the weather conditions in past years. The results will help you decide how hot, cold, wet, or windy it might be!

Date:

Astronomy

Aug. 25, 2013 Rise Set
Actual Time 7:02 AM EDT 8:12 PM EDT
Civil Twilight 6:36 AM EDT 8:39 PM EDT
Nautical Twilight 6:04 AM EDT 9:10 PM EDT
Astronomical Twilight 5:31 AM EDT 9:43 PM EDT
Moon 10:55 PM EDT (8/25) 11:51 AM EDT (8/25)
Length of Visible Light 14h 02m
Length of Day
13h 09m
Waning Gibbous, 76% of the Moon is Illuminated
Aug 25
Waning Gibbous
Aug 28
Last Quarter
Sep 5
New
Sep 12
First Quarter
Sep 19
Full

Hourly Weather History & Observations

Time (EDT) Temp. Heat Index Dew Point Humidity Pressure Visibility Wind Dir Wind Speed Gust Speed Precip Events Conditions
12:53 AM 71.1 °F - 64.9 °F 81% 30.23 in 10.0 mi Calm Calm - N/A   Scattered Clouds
2:53 AM 69.1 °F - 64.0 °F 84% 30.25 in 10.0 mi NNE 4.6 mph - N/A   Scattered Clouds
3:53 AM 64.9 °F - 62.1 °F 90% 30.25 in 10.0 mi ENE 3.5 mph - N/A   Scattered Clouds
4:53 AM 66.9 °F - 62.1 °F 84% 30.26 in 10.0 mi Calm Calm - N/A   Partly Cloudy
5:53 AM 64.9 °F - 61.0 °F 87% 30.27 in 10.0 mi NNE 5.8 mph - N/A   Partly Cloudy
6:53 AM 63.0 °F - 61.0 °F 93% 30.30 in 8.0 mi Calm Calm - N/A   Partly Cloudy
7:53 AM 64.0 °F - 62.1 °F 93% 30.33 in 8.0 mi Calm Calm - N/A   Partly Cloudy
8:53 AM 68.0 °F - 62.1 °F 81% 30.35 in 10.0 mi NE 5.8 mph - N/A   Clear
9:53 AM 72.0 °F - 62.1 °F 71% 30.35 in 10.0 mi Calm Calm - N/A   Partly Cloudy
10:53 AM 75.0 °F - 63.0 °F 66% 30.35 in 10.0 mi Calm Calm - N/A   Partly Cloudy
11:53 AM 78.1 °F - 63.0 °F 60% 30.34 in 10.0 mi Calm Calm - N/A   Partly Cloudy
12:53 PM 80.1 °F 81.7 °F 64.0 °F 58% 30.32 in 10.0 mi Calm Calm - N/A   Partly Cloudy
1:53 PM 81.0 °F 82.2 °F 63.0 °F 54% 30.30 in 10.0 mi NW 4.6 mph - N/A   Scattered Clouds
2:53 PM 82.0 °F 82.7 °F 61.0 °F 49% 30.27 in 10.0 mi Calm Calm - N/A   Scattered Clouds
3:53 PM 84.0 °F 84.4 °F 61.0 °F 46% 30.25 in 10.0 mi NNE 10.4 mph - N/A   Scattered Clouds
4:53 PM 84.0 °F 83.8 °F 59.0 °F 43% 30.23 in 10.0 mi NE 9.2 mph - 0.00 in   Scattered Clouds
5:53 PM 82.9 °F 82.8 °F 59.0 °F 44% 30.23 in 10.0 mi ENE 5.8 mph - N/A   Scattered Clouds
6:53 PM 81.0 °F 81.7 °F 61.0 °F 50% 30.23 in 10.0 mi ENE 8.1 mph - N/A   Scattered Clouds
7:53 PM 77.0 °F - 61.0 °F 58% 30.23 in 10.0 mi ENE 3.5 mph - N/A   Scattered Clouds
8:53 PM 75.0 °F - 63.0 °F 66% 30.24 in 10.0 mi Calm Calm - N/A   Partly Cloudy
9:53 PM 70.0 °F - 64.9 °F 84% 30.26 in 10.0 mi Calm Calm - N/A   Partly Cloudy
10:53 PM 71.1 °F - 64.9 °F 81% 30.27 in 10.0 mi Calm Calm - N/A   Scattered Clouds
11:53 PM 68.0 °F - 64.0 °F 87% 30.28 in 10.0 mi Calm Calm - N/A   Partly Cloudy